Flag for Russia Weather past 2 weeks in Voronezh, Russia

Now
36 °F

Low clouds.


Feels Like: 29 °F
Forecast: 29 / 35 °F
Wind: 8 mph from Southwest

Location: Voronez

Current Time: Dec 20, 2014 at 5:38:33 AM

Latest Report: Dec 20, 2014 at 5:00 AM


Visibility: 4 mi

Pressure: 29.74 "Hg

Humidity: 93%

Dew point: 34 °F

Location of VoronezhLocation

Historic Weather in Voronezh — Graph

°F

Voronezh temperature yesterday

Maximum temperature yesterday: 36 °F (at 11:00 PM)
Minimum temperature yesterday: 23 °F (at 4:30 AM)
Average temperature yesterday: 30 °F

Past Weeks' High & Low Weather Summary

 TemperatureHumidityPressure
High39 °F (Dec 18, 10:00 AM)100% (Dec 6, 12:00 AM)30.57 "Hg (Dec 6, 12:00 AM)
Low16 °F (Dec 7, 8:30 AM)69% (Dec 7, 1:00 PM)29.77 "Hg (Dec 20, 1:00 AM)
Average30 °F92%30.17 "Hg
* Reported Dec 5 4:00 AM — Dec 20 4:00 AM, Voronezh, Weather by CustomWeather, © 2014

Note: Actual official high and low records may vary slightly from our data, if they occured in-between our weather recording intervals... More about our weather records

Advertising

Voronezh weather history for previous 24 hours

 ConditionsComfort  
Time TempWeatherWind HumidityBarometerVisibility
4:00 AM
Dec 20
36 °FFog.8 mph93%29.77 "Hg3 mi
3:30 AM34 °FFog.8 mph100%29.77 "Hg3 mi
3:00 AM36 °FFog.6 mph93%29.77 "Hg3 mi
2:30 AM36 °FDrizzle. Fog.8 mph93%29.77 "Hg2 mi
2:00 AM34 °FFog.6 mph93%29.77 "Hg2 mi
1:30 AM36 °FFog.8 mph87%29.77 "Hg2 mi
1:00 AM36 °FLow clouds.8 mph87%29.77 "Hg5 mi
12:00 AM36 °FOvercast.8 mph87%29.80 "Hg6 mi
11:30 PM
Dec 19
36 °FLight rain. Overcast.8 mph87%29.80 "Hg5 mi
11:00 PM36 °FLight rain. Overcast.8 mph87%29.80 "Hg4 mi
10:30 PM34 °FLight rain. Low clouds.8 mph93%29.80 "Hg4 mi
10:00 PM34 °FLight rain. Overcast.8 mph93%29.80 "Hg3 mi
9:30 PM34 °FLight rain. Overcast.8 mph93%29.80 "Hg3 mi
9:00 PM34 °FLight rain. Overcast.8 mph93%29.83 "Hg4 mi
8:30 PM34 °FLight snow. Overcast.8 mph93%29.83 "Hg3 mi
8:00 PM34 °FLow clouds.6 mph93%29.83 "Hg6 mi
7:30 PM34 °FLow clouds.6 mph93%29.83 "Hg6 mi
7:00 PM34 °FLow clouds.8 mph93%29.83 "Hg6 mi
6:30 PM34 °FOvercast.6 mph87%29.83 "HgN/A
6:00 PM34 °FOvercast.8 mph87%29.83 "HgN/A
5:30 PM34 °FOvercast.8 mph87%29.83 "HgN/A
5:00 PM34 °FOvercast.6 mph87%29.86 "HgN/A
4:30 PM32 °FOvercast.6 mph93%29.86 "HgN/A
4:00 PM32 °FOvercast.6 mph93%29.86 "HgN/A
3:30 PM32 °FOvercast.6 mph93%29.86 "HgN/A
3:00 PM32 °FOvercast.3 mph93%29.86 "HgN/A
2:30 PM32 °FPartly sunny.6 mph93%29.86 "HgN/A
2:00 PM32 °FSunny.6 mph87%29.86 "Hg10 mi
1:30 PM30 °FSunny.3 mph93%29.89 "Hg10 mi
1:00 PM30 °FSunny.3 mph93%29.89 "Hg10 mi
12:30 PM30 °FPartly sunny.3 mph93%29.89 "Hg6 mi
12:00 PM30 °FMore clouds than sun.3 mph93%29.89 "Hg5 mi
11:30 AM28 °FIce fog.1 mph100%29.89 "Hg3 mi
11:00 AM28 °FIce fog.3 mph100%29.92 "Hg2 mi
10:00 AM28 °FIce fog.3 mph100%29.92 "Hg2 mi
9:30 AM28 °FIce fog.3 mph93%29.92 "Hg1 mi
9:00 AM27 °FIce fog.1 mph100%29.92 "Hg1 mi
8:30 AM27 °FIce fog.1 mph100%29.92 "Hg1 mi
8:00 AM27 °FIce fog.1 mph93%29.92 "Hg1 mi
7:30 AM27 °FIce fog.3 mph100%29.92 "Hg0 mi
7:00 AM27 °FIce fog.3 mph93%29.92 "Hg0 mi
6:30 AM27 °FIce fog.1 mph93%29.92 "Hg0 mi
6:00 AM27 °FIce fog.6 mph93%29.92 "Hg0 mi
5:30 AM25 °FIce fog.6 mph100%29.92 "Hg0 mi
5:00 AM25 °FIce fog.3 mph93%29.92 "Hg0 mi
Weather by CustomWeather, © 2014

See weather overviewHow to use our weather pages